Location: ???????
(56.2167°N, 38.0500°E)
Time: 04:31:55
(UTC+00:00)

Cosmos 2056 Rocket - Pass Details

Date: 19 May 2025
Orbit: 739 x 796 km, 74.0° (Epoch: 19 June)

Event Time Altitude Azimuth Distance (km) Brightness Sun altitude
Rises 20:58:30 0° 331° (NNW) 3,296 8.1 -13.6°
Reaches altitude 10° 21:00:56 10° 333° (NNW) 2,356 7.2 -13.7°
Maximum altitude 21:06:18 74° 59° (ENE) 812 3.7 -13.7°
Enters shadow 21:10:41 15° 144° (SE) 1,979 5.1 -13.8°
